Simultaneous Nadir Overpasses (SNOs) Predictions

Prediction of SNOs between AQUA and NOAA-19 Satellite Orbit:

Table of predicted SNOs for the next 14.0 days since TLE Epoch: 6/6/2014
Index Date (AQUA) Time (AQUA) Lat,Lon (AQUA) SZA (AQUA ) Date (NOAA-19) Time (NOAA-19) Lat,Lon (NOAA-19) SZA (NOAA-19 ) Distance(km) Time Diff (sec)
1 06/08/2014 09:09:02 -76.31,-149.34 126.29 06/08/2014 09:08:27 -76.31,-149.34 126.28 0.15 35
2 06/08/2014 09:58:07 75.20, 21.58 52.46 06/08/2014 09:59:10 75.19, 21.67 52.43 2.92 63
3 06/10/2014 13:53:22 -76.44, 139.18 126.32 06/10/2014 13:52:21 -76.43, 139.28 126.32 2.99 61
4 06/10/2014 14:42:35 75.73, -50.99 52.88 06/10/2014 14:43:13 75.74, -51.04 52.88 1.52 38
5 06/12/2014 19:26:56 75.93,-122.65 52.96 06/12/2014 19:27:08 75.92,-122.60 52.95 1.29 12
6 06/15/2014 00:11:21 76.33, 165.02 53.31 06/15/2014 00:11:08 76.33, 164.99 53.32 0.90 13
7 06/15/2014 00:59:02 -70.91, -15.26 132.49 06/15/2014 01:00:16 -71.07, -14.38 132.33 36.38 74
8 06/17/2014 04:55:43 76.59, 93.06 53.55 06/17/2014 04:55:05 76.60, 93.00 53.57 1.85 38
9 06/17/2014 05:44:50 -75.73, -96.54 127.46 06/17/2014 05:45:42 -75.73, -96.55 127.46 0.35 52
10 06/19/2014 09:40:03 76.82, 21.19 53.78 06/19/2014 09:39:00 76.83, 21.14 53.81 1.58 63




NCC Satellite Simultaneous Nadir Overpasses (SNOs) Prediction Service
